Wind_Speed
41 43 44 44 44 43 42 42 41 40 39 38 36 35 35 34 34 33 34 34 34 35 36 36 36 37 38 39 39 39 39 40 40 41 41 41 41 41 42 43 45 47 46 41 37 36 33 30 30 30 30 31 31 31 32 31 30 29 29 28 27 27 28
43 44 44 44 44 43 42 42 41 40 39 38 37 36 35 35 34 34 34 34 34 35 36 36 36 37 38 39 39 39 39 40 41 41 41 41 41 41 41 43 45 46 46 43 38 35 34 33 32 32 32 33 33 32 31 30 29 29 28 27 27 27 28
43 44 44 43 43 43 42 42 40 40 39 38 37 37 36 35 35 35 34 34 34 35 36 36 37 38 39 39 39 39 39 40 41 41 41 41 41 41 41 42 44 44 45 43 39 36 36 35 34 34 34 34 34 33 32 30 29 28 28 27 27 27 28
42 42 42 42 42 43 42 42 41 40 39 39 38 38 37 36 36 35 35 34 34 35 35 36 37 38 39 39 39 39 40 41 41 41 41 41 41 42 42 42 42 42 42 42 40 38 38 37 36 36 36 35 35 34 31 30 29 29 28 27 27 28 28
42 42 42 42 43 43 42 42 41 40 39 39 39 38 37 37 37 36 35 34 34 35 35 36 37 38 39 39 39 39 40 40 41 41 41 41 41 42 42 42 41 40 41 41 41 40 39 39 38 38 37 36 36 34 32 30 30 30 29 28 28 29 30
44 44 44 43 43 43 42 42 41 40 40 39 39 39 38 38 37 36 35 34 34 34 35 36 37 37 38 39 39 39 40 40 41 41 41 41 41 42 42 41 40 40 40 41 42 42 40 40 40 39 38 37 36 35 33 31 30 30 30 29 29 30 31
45 44 44 43 43 42 42 41 40 40 40 40 39 39 38 38 38 36 35 34 34 34 35 36 37 37 38 39 39 39 39 40 41 41 41 40 41 42 42 41 40 40 41 42 43 43 41 40 41 40 38 37 36 35 34 33 32 31 29 30 31 32 34
43 43 42 43 43 42 41 41 40 40 40 40 39 39 39 39 38 36 35 34 34 34 35 36 37 37 38 39 39 39 39 40 40 41 40 40 41 42 41 41 40 40 42 44 44 42 41 42 41 40 39 38 37 36 35 34 34 32 31 31 33 34 36
42 41 42 43 42 42 41 41 40 40 40 40 40 40 40 39 38 37 35 34 34 34 35 36 37 38 38 39 39 39 40 40 40 41 40 40 41 42 41 41 40 41 43 44 43 42 42 43 42 41 40 39 38 37 36 35 35 35 34 35 35 34 36
41 42 42 43 42 41 41 40 40 40 40 40 40 41 41 40 38 37 35 34 34 34 35 36 37 37 38 38 39 39 40 40 40 41 40 41 41 41 41 41 41 42 43 43 43 43 43 44 42 41 40 40 39 38 38 37 37 37 37 38 38 36 36
41 42 42 43 42 41 41 40 40 40 40 40 41 41 41 40 39 37 35 34 34 34 35 36 37 37 37 38 39 40 40 41 41 41 41 41 41 41 40 41 42 43 43 43 43 43 44 44 43 41 40 40 40 39 39 39 39 39 39 40 40 39 38
41 41 42 43 42 41 40 40 40 40 40 41 42 42 42 41 39 37 35 35 35 35 36 36 37 37 37 37 38 39 40 41 41 42 42 42 41 41 41 42 43 43 42 43 44 44 44 44 43 42 40 38 39 40 40 40 40 40 41 42 43 42 41
41 42 42 43 42 41 40 39 39 40 40 41 42 43 43 42 39 37 35 35 36 36 36 36 37 37 37 37 38 39 40 41 41 42 42 43 42 42 42 43 43 41 41 43 44 45 45 44 43 42 40 38 39 41 41 41 41 41 42 43 44 44 43
42 42 43 42 41 41 40 39 39 39 40 42 42 43 44 43 41 38 36 35 35 36 36 36 37 37 37 37 38 38 39 40 41 42 43 43 43 42 43 44 42 40 41 43 44 45 46 45 43 42 40 38 39 42 42 43 43 43 43 44 45 45 44
43 43 42 42 41 40 39 38 38 40 40 42 43 43 44 43 42 40 38 37 36 36 36 36 37 37 37 37 37 37 38 40 41 42 43 43 43 43 44 43 40 40 42 43 44 45 46 46 44 41 40 39 39 41 43 44 45 45 44 46 46 46 44
42 42 41 41 40 40 38 37 38 40 41 42 43 44 44 43 42 41 39 38 37 37 36 36 37 38 38 38 37 36 38 39 41 42 42 42 42 44 44 43 40 41 43 43 44 45 45 45 44 41 40 39 39 41 43 45 46 46 45 47 48 47 44
41 41 41 40 40 39 38 37 38 39 41 42 43 44 44 43 42 41 40 39 38 37 37 37 37 39 39 38 37 37 38 39 40 41 42 42 43 44 44 42 41 42 44 43 44 45 45 44 42 40 38 38 38 40 43 46 47 46 46 48 48 47 45
40 40 40 40 39 39 39 38 38 39 41 42 43 44 45 44 43 41 40 39 39 38 37 37 38 39 39 39 38 38 39 40 40 41 41 42 44 45 44 43 43 44 44 43 43 44 44 43 41 39 38 37 37 39 41 45 48 47 47 48 48 47 47
40 40 39 39 39 39 39 38 38 39 41 42 43 44 45 45 43 42 40 40 39 38 37 37 38 39 39 39 39 39 40 40 40 41 42 43 45 45 45 45 45 45 44 43 42 42 42 41 39 38 37 37 36 38 41 44 47 48 49 49 48 46 48
39 40 39 39 39 39 39 39 39 40 41 42 43 44 45 45 44 42 41 41 40 38 37 37 38 39 39 39 39 40 41 41 41 41 43 44 45 46 46 47 47 45 44 43 41 40 39 39 37 36 36 36 36 38 40 43 46 48 48 49 48 47 48
39 39 39 40 39 39 39 40 40 40 41 42 42 43 45 45 44 43 42 42 40 39 38 38 38 39 39 39 40 41 41 41 41 43 44 45 45 46 47 48 47 46 44 43 41 39 38 36 35 35 35 36 37 38 40 43 45 47 47 47 47 48 49
39 40 40 40 39 39 40 40 40 41 41 42 42 43 44 45 44 43 43 43 41 39 38 39 39 39 39 39 40 41 41 41 42 43 44 45 45 46 47 48 48 47 45 42 39 37 36 34 33 34 34 35 36 38 40 42 44 45 45 46 46 47 49
40 41 41 40 39 39 39 40 40 41 41 42 42 43 44 44 44 43 43 43 41 40 39 39 39 39 38 39 40 40 40 41 42 43 44 44 45 47 47 48 47 47 45 42 38 35 33 32 32 33 34 35 36 38 39 41 42 43 44 45 46 47 49
41 42 42 41 40 39 38 39 40 41 41 42 42 43 44 44 43 43 43 42 41 41 40 40 39 39 38 39 39 40 40 40 42 43 44 44 45 46 47 47 46 45 44 41 38 35 33 31 31 33 34 35 36 38 38 39 41 42 44 45 46 47 49
41 42 42 42 40 38 38 39 40 40 41 41 43 43 43 43 43 42 42 42 41 41 41 41 40 39 39 39 39 39 39 40 42 43 44 44 45 45 46 45 44 42 41 39 36 34 33 31 31 32 34 34 36 37 37 38 40 42 43 44 46 47 48
42 42 43 42 41 39 38 39 40 39 40 41 43 44 43 43 42 42 42 42 41 41 41 41 40 40 39 39 39 39 40 41 43 43 44 44 44 44 44 43 41 40 38 36 34 33 32 31 31 32 33 34 35 36 37 38 40 41 42 43 45 47 48
43 43 42 42 41 40 40 39 39 39 39 41 43 43 42 42 41 41 41 41 41 41 42 41 40 40 39 39 38 39 40 42 43 43 43 43 43 42 41 40 38 36 35 34 33 33 32 31 30 31 32 33 34 35 35 37 39 40 41 42 44 46 47
43 42 42 42 41 41 40 39 38 38 40 41 42 42 41 41 41 41 41 41 41 41 42 41 40 40 39 39 39 40 41 42 43 43 42 42 41 40 38 36 34 33 33 32 32 33 32 31 30 31 31 32 34 34 34 35 37 39 40 41 43 45 46
43 42 42 42 42 41 40 39 38 39 40 41 41 41 41 41 40 40 40 40 41 41 41 40 40 39 39 38 39 41 41 41 42 42 41 41 40 38 36 34 33 33 32 32 33 33 32 31 31 31 31 32 33 33 33 35 36 38 39 41 43 45 46
43 42 41 41 41 40 40 40 39 39 39 40 40 40 40 40 40 40 39 39 40 41 40 39 39 38 38 39 40 40 40 40 41 40 39 39 38 36 35 34 33 33 33 33 33 32 32 32 32 32 32 32 33 33 34 35 36 38 40 41 44 46 47
42 42 41 41 41 40 40 40 40 39 39 39 39 40 40 39 39 39 39 39 39 39 39 38 38 38 38 39 40 40 39 39 39 38 37 36 35 34 34 34 34 33 33 32 32 32 32 33 33 33 33 34 34 35 36 36 37 39 41 43 45 47 48
42 41 41 41 41 40 40 40 40 40 39 39 39 39 38 38 38 38 37 38 38 38 38 37 38 38 38 38 39 39 38 39 38 37 36 35 34 33 33 33 33 33 32 31 31 32 33 33 33 34 35 35 36 37 38 38 39 40 42 44 46 48 49
41 40 40 40 40 41 40 40 40 40 39 39 38 38 37 37 38 37 36 36 37 37 37 37 37 37 37 38 38 38 38 37 36 35 34 33 33 33 33 32 32 31 30 30 31 32 33 33 34 36 37 37 38 39 40 40 41 42 44 46 47 49 51
41 41 41 40 40 40 40 40 40 40 40 39 38 37 37 37 36 35 34 35 36 36 36 36 37 37 37 38 38 38 37 36 34 33 33 33 33 33 32 30 30 30 30 31 32 32 33 35 36 38 39 40 40 41 41 42 42 44 46 47 49 50 52
40 40 41 40 40 39 39 40 41 40 40 39 38 37 36 36 35 34 33 34 35 35 36 36 37 37 37 37 38 37 36 34 33 32 32 33 33 32 31 29 29 30 31 32 33 33 35 37 38 39 40 41 42 42 42 43 44 46 48 49 51 52 53
38 39 39 39 39 39 39 40 41 40 40 39 37 36 36 36 35 34 34 33 33 34 35 36 37 36 37 37 38 37 35 33 32 32 33 33 33 31 30 29 29 30 31 33 34 35 37 39 40 41 42 43 43 43 43 44 46 47 49 50 52 53 54
Wind_Direction
267 267 268 269 271 272 273 274 274 276 277 279 280 281 280 280 281 285 288 289 291 292 294 296 297 297 296 297 298 299 300 300 301 302 303 303 304 305 305 305 305 305 305 307 306 304 303 303 301 301 302 300 299 298 295 292 289 286 285 288 291 293 292
269 269 270 271 272 272 272 272 273 274 276 278 279 279 279 279 281 286 288 288 290 292 293 295 296 296 296 296 298 299 300 300 301 302 302 303 304 304 304 304 303 304 304 305 305 303 302 302 302 302 302 302 301 298 294 288 284 283 286 289 291 292 291
270 271 271 271 271 271 271 271 272 274 276 277 278 278 278 278 281 285 286 288 290 291 293 294 295 295 295 296 298 299 300 300 301 301 302 302 303 303 302 302 302 302 302 304 305 304 302 302 302 302 302 302 301 297 292 286 282 283 286 289 291 291 289
272 272 271 271 270 270 270 270 271 272 274 276 277 277 277 278 281 284 285 287 289 291 292 293 294 294 295 296 298 299 299 300 300 301 301 301 301 301 300 300 300 300 301 303 304 303 301 301 302 301 302 302 299 295 290 285 283 284 286 288 291 290 288
272 271 270 269 269 269 268 268 269 271 273 275 276 275 275 277 281 283 284 286 288 290 291 292 293 294 294 296 297 298 299 300 300 300 300 300 299 299 298 298 298 298 298 300 300 299 300 301 300 299 300 301 298 293 287 283 283 285 286 288 290 290 288
269 268 267 267 268 268 267 267 268 271 273 274 274 273 274 277 280 282 284 286 288 290 291 292 292 293 294 296 297 298 299 299 299 298 298 298 297 297 296 296 295 295 296 296 296 297 299 299 297 297 299 300 297 291 286 282 282 284 286 287 289 290 289
265 265 266 266 267 266 265 266 268 270 272 272 272 272 274 277 280 281 284 286 288 290 291 291 292 292 294 295 296 297 298 298 297 296 296 295 294 293 293 293 293 293 294 293 294 296 297 296 295 297 299 299 295 289 285 283 282 282 284 285 287 289 288
265 266 267 267 265 263 264 266 268 270 271 270 270 271 274 277 279 281 283 286 288 290 290 291 291 292 293 295 296 297 297 296 295 294 293 292 291 291 291 291 291 291 291 292 293 294 295 294 294 297 299 297 293 287 283 283 283 283 284 284 285 287 287
266 267 267 266 263 262 263 266 268 269 269 269 269 271 275 277 279 281 284 286 289 290 290 291 291 292 293 294 295 296 295 294 293 292 291 290 289 289 289 289 290 290 290 291 293 293 293 293 294 297 298 295 290 285 282 282 282 283 285 283 283 288 289
266 267 266 263 261 261 263 266 267 268 268 268 269 272 276 277 279 281 285 288 289 290 290 290 290 291 293 294 295 295 294 293 291 291 290 288 287 287 287 288 289 289 291 292 292 292 292 293 294 296 295 291 287 284 281 281 281 281 283 282 283 289 292
264 266 264 261 260 261 263 265 266 266 266 267 270 274 276 277 279 283 286 288 290 290 289 289 290 291 293 294 295 294 293 292 290 289 287 286 286 286 287 289 289 290 291 291 290 290 290 291 293 293 291 288 284 281 278 279 279 280 281 282 283 288 293
264 264 263 261 260 261 263 264 264 265 265 268 272 274 276 277 280 284 287 289 290 290 289 289 289 291 293 293 293 292 291 290 289 288 287 286 286 286 287 287 287 289 290 289 288 288 288 290 291 290 289 287 282 279 277 278 279 280 281 283 286 290 293
264 264 262 260 259 261 263 263 263 264 266 269 273 275 276 278 281 284 287 289 289 289 289 289 290 291 293 293 292 290 288 287 287 286 285 285 285 286 286 286 287 289 289 288 289 289 289 291 291 289 288 286 282 278 278 278 279 281 283 286 288 291 294
265 263 261 259 259 261 261 262 262 264 268 271 274 275 277 280 282 285 287 288 288 288 288 288 289 291 292 292 290 288 286 285 285 284 284 284 285 286 286 286 289 290 290 290 291 290 290 290 291 289 287 286 282 280 279 279 280 282 286 288 289 291 294
264 262 260 259 260 261 260 261 262 266 269 272 274 276 278 281 284 286 288 289 288 288 288 288 289 291 291 290 288 286 284 283 283 282 282 284 285 285 285 287 290 291 290 291 292 291 290 290 291 290 287 285 284 281 281 281 282 285 288 288 288 291 295
263 260 259 259 260 260 260 260 263 267 270 272 274 276 279 282 284 287 289 289 289 288 288 289 290 291 291 290 287 284 282 282 281 282 283 284 285 284 285 288 291 291 291 291 291 290 290 290 290 289 287 285 285 283 283 283 284 287 289 289 290 292 295
261 259 258 259 259 259 259 261 264 268 270 272 274 277 279 282 284 286 288 289 289 288 289 290 291 292 292 291 287 284 282 282 283 284 285 286 285 285 287 290 292 291 290 291 291 290 290 289 288 286 285 284 284 284 284 285 286 288 290 289 290 293 295
259 258 258 258 258 258 260 262 265 268 270 272 274 277 279 282 284 286 287 288 288 288 289 291 292 293 292 290 287 285 284 284 285 286 287 287 287 287 289 291 291 290 290 290 291 290 290 289 287 285 283 282 283 284 285 286 287 289 289 289 291 295 296
258 257 256 256 257 259 261 264 267 268 270 272 275 277 280 282 284 285 287 287 287 288 290 291 292 292 291 289 287 286 286 287 287 288 288 288 288 289 290 291 290 290 291 291 290 290 288 286 284 283 282 282 284 285 285 286 287 288 290 291 294 297 297
257 256 256 256 258 260 263 265 267 268 270 272 275 278 280 282 284 285 286 286 286 288 290 291 292 291 289 288 288 287 287 287 288 289 288 288 289 290 290 290 290 292 293 293 292 290 286 283 280 279 281 282 283 284 285 286 287 289 292 294 297 298 298
256 256 256 257 259 261 264 266 267 268 270 273 275 278 280 282 284 285 285 286 287 288 290 291 291 290 288 287 286 286 286 288 289 289 289 289 290 290 290 291 292 293 294 294 292 289 284 281 279 279 279 281 281 283 284 286 288 291 293 296 297 297 297
257 257 257 258 260 262 264 266 267 269 271 273 275 277 279 281 283 284 285 287 288 289 291 291 290 288 286 285 284 284 286 287 288 288 289 290 290 291 291 292 294 295 295 293 291 287 283 281 280 279 279 280 281 283 284 286 288 291 292 293 294 294 295
258 259 259 259 261 263 265 266 268 270 272 274 276 278 279 281 282 283 285 286 288 289 290 289 288 286 285 283 283 284 285 287 288 288 289 290 290 291 291 292 294 294 294 293 290 286 283 281 279 279 279 280 282 283 284 287 289 290 290 291 292 293 295
259 260 261 261 262 264 265 267 268 271 273 275 277 278 278 279 281 282 284 285 287 288 288 288 286 285 284 283 283 284 286 287 288 288 289 289 290 290 290 291 291 292 291 291 289 287 284 282 280 279 280 281 283 284 286 288 288 289 290 291 293 294 296
260 261 263 264 265 265 266 267 269 271 274 276 276 277 277 278 280 282 283 284 286 287 288 287 286 285 283 283 284 285 287 287 288 288 289 289 289 289 290 290 289 289 289 288 288 287 286 285 283 283 284 285 286 287 287 288 288 289 290 292 293 295 296
261 262 264 266 267 266 266 268 270 272 274 275 275 275 277 279 280 281 282 284 286 287 287 287 286 285 284 284 285 287 288 288 288 288 289 289 289 289 289 289 289 288 288 288 289 288 287 287 286 286 287 287 287 287 288 288 289 290 291 293 295 296 298
262 264 266 267 268 267 268 269 271 273 273 273 274 275 277 279 280 281 282 284 285 286 286 286 285 285 285 286 287 288 288 288 288 289 289 289 289 289 289 288 288 288 289 290 290 289 289 289 289 289 288 287 287 288 289 290 291 292 294 295 296 297 300
265 266 267 268 269 269 269 271 272 272 272 272 273 275 276 277 278 280 281 283 284 284 285 285 285 285 285 287 288 288 288 289 289 290 289 289 289 289 288 287 287 288 289 290 289 290 291 292 292 291 290 290 290 291 292 292 293 295 297 298 298 300 302
266 267 268 269 270 270 271 272 272 272 272 272 274 275 275 276 277 279 280 282 283 283 283 283 283 284 285 286 286 286 287 288 289 289 289 288 288 288 287 287 288 289 290 290 291 293 294 294 293 293 292 292 293 294 295 295 296 298 299 300 301 302 303
267 268 269 269 270 271 272 272 272 272 272 273 273 274 275 276 277 278 279 280 281 282 282 282 282 282 283 283 283 283 284 286 286 286 285 285 285 285 285 286 288 290 291 292 293 295 296 295 295 295 296 296 296 297 297 298 299 300 301 302 303 303 304
269 270 270 271 271 271 272 272 272 272 272 272 273 273 275 276 277 278 279 279 280 280 281 280 280 281 281 282 282 283 284 285 284 283 282 281 281 281 283 286 287 289 290 292 295 296 296 296 297 298 298 298 299 300 300 300 301 302 303 303 304 304 304
270 271 272 272 272 272 272 272 272 272 272 272 272 273 275 275 276 277 279 280 280 281 280 279 279 280 281 282 283 283 284 284 282 280 279 278 278 280 282 284 286 288 290 292 294 294 295 297 298 299 300 300 301 301 301 302 302 303 303 304 304 304 304
271 272 272 273 273 273 273 273 272 272 272 272 273 274 275 275 276 278 280 280 280 279 279 279 279 280 282 283 283 284 284 282 280 278 277 277 278 279 281 282 284 286 289 291 292 293 295 297 299 299 301 301 301 301 302 303 303 304 304 304 304 303 303
273 273 273 272 272 272 273 273 273 272 273 273 274 274 275 276 277 279 280 280 279 279 278 279 280 281 283 284 284 285 284 281 278 277 276 277 278 279 280 281 283 286 288 290 291 293 296 298 299 300 301 302 302 302 302 303 304 305 304 304 304 304 304
273 274 274 274 273 273 273 273 273 273 274 275 276 277 277 278 279 281 281 279 279 279 280 280 281 283 284 285 285 285 283 280 277 276 276 277 277 278 279 281 283 286 288 290 292 295 298 299 300 301 301 301 302 302 303 304 305 305 305 304 304 304 304
271 271 272 273 274 275 274 274 274 275 276 278 279 280 281 282 283 284 282 280 279 279 280 281 283 285 286 286 286 286 283 279 276 276 276 277 277 278 279 282 284 286 288 291 294 296 298 299 300 300 300 301 301 302 303 305 305 305 304 305 305 304 305
Height
3006 3006 3006 3005 3005 3005 3005 3004 3004 3004 3003 3003 3003 3003 3003 3002 3002 3002 3001 3000 2999 2997 2995 2994 2992 2991 2988 2986 2985 2984 2982 2980 2978 2976 2974 2972 2970 2969 2966 2964 2961 2959 2959 2960 2960 2958 2958 2959 2958 2957 2956 2954 2953 2952 2950 2948 2947 2946 2946 2945 2944 2942 2940
3001 3001 3000 3000 3000 3000 2999 2999 2999 2998 2998 2998 2998 2998 2998 2998 2998 2997 2997 2996 2994 2992 2990 2989 2987 2986 2983 2982 2980 2979 2977 2975 2972 2970 2969 2967 2965 2964 2962 2959 2957 2954 2953 2954 2954 2953 2952 2952 2952 2952 2950 2949 2948 2946 2945 2944 2943 2942 2941 2940 2939 2938 2936
2996 2995 2995 2995 2995 2994 2994 2994 2993 2993 2993 2994 2993 2993 2993 2993 2993 2993 2992 2991 2989 2987 2986 2984 2983 2981 2978 2977 2975 2974 2972 2969 2967 2965 2963 2962 2960 2958 2957 2954 2952 2951 2948 2947 2948 2948 2946 2946 2946 2946 2945 2944 2942 2941 2940 2939 2938 2937 2937 2936 2934 2933 2931
2990 2990 2990 2990 2989 2989 2989 2988 2988 2988 2989 2989 2988 2988 2988 2988 2988 2988 2987 2986 2985 2983 2981 2980 2978 2976 2973 2972 2970 2969 2966 2964 2962 2960 2958 2957 2955 2953 2951 2950 2948 2947 2944 2941 2941 2942 2941 2940 2940 2940 2940 2939 2937 2935 2935 2934 2933 2932 2932 2932 2930 2928 2927
2985 2984 2984 2984 2984 2984 2983 2983 2983 2984 2984 2984 2983 2984 2984 2983 2983 2983 2982 2981 2980 2978 2977 2975 2973 2971 2968 2967 2965 2964 2961 2959 2957 2955 2953 2952 2950 2948 2946 2945 2944 2943 2940 2937 2936 2937 2936 2935 2935 2934 2934 2933 2931 2930 2929 2929 2928 2927 2927 2927 2926 2924 2922
2979 2979 2978 2978 2978 2978 2978 2978 2979 2979 2979 2978 2978 2979 2979 2978 2978 2978 2977 2976 2975 2973 2972 2970 2968 2966 2964 2962 2960 2958 2956 2954 2952 2950 2948 2947 2945 2943 2941 2940 2940 2938 2936 2934 2932 2931 2931 2931 2929 2929 2929 2928 2925 2924 2924 2923 2923 2922 2922 2921 2921 2920 2918
2973 2973 2973 2973 2973 2973 2973 2973 2974 2974 2974 2973 2973 2973 2973 2973 2973 2973 2972 2971 2970 2968 2967 2965 2963 2961 2959 2957 2955 2953 2951 2949 2947 2945 2944 2942 2940 2938 2937 2936 2935 2934 2932 2930 2928 2927 2927 2926 2925 2924 2924 2922 2920 2919 2918 2917 2917 2917 2918 2917 2916 2915 2913
2967 2968 2968 2968 2968 2968 2968 2968 2969 2969 2968 2968 2968 2968 2968 2967 2967 2967 2967 2966 2964 2963 2961 2960 2958 2955 2953 2951 2949 2948 2946 2944 2942 2940 2939 2938 2935 2934 2933 2932 2931 2929 2927 2925 2924 2923 2922 2921 2920 2920 2919 2917 2915 2913 2913 2912 2911 2911 2912 2912 2911 2911 2908
2962 2962 2963 2963 2962 2962 2963 2963 2964 2963 2963 2962 2962 2962 2962 2961 2961 2961 2961 2960 2959 2958 2956 2954 2952 2950 2948 2946 2944 2942 2941 2939 2937 2935 2934 2933 2931 2929 2928 2927 2926 2924 2923 2921 2919 2918 2917 2915 2915 2915 2913 2911 2910 2908 2907 2907 2906 2905 2905 2905 2906 2906 2903
2957 2957 2957 2957 2957 2957 2958 2958 2958 2958 2957 2957 2956 2956 2955 2955 2955 2955 2955 2954 2953 2952 2950 2948 2946 2944 2942 2940 2939 2937 2935 2933 2932 2930 2929 2927 2926 2925 2923 2922 2921 2920 2918 2916 2914 2913 2912 2910 2910 2910 2908 2906 2904 2903 2902 2902 2901 2901 2900 2899 2899 2900 2899
2951 2951 2951 2951 2951 2952 2953 2953 2953 2952 2952 2951 2950 2950 2949 2949 2949 2949 2949 2948 2947 2946 2945 2942 2941 2939 2937 2935 2933 2931 2929 2928 2926 2925 2923 2922 2921 2920 2919 2917 2916 2915 2914 2911 2909 2908 2907 2905 2905 2905 2903 2901 2899 2898 2897 2897 2896 2895 2894 2893 2892 2893 2893
2946 2946 2946 2946 2946 2947 2947 2948 2947 2947 2946 2945 2944 2943 2943 2943 2943 2943 2943 2942 2941 2940 2939 2937 2935 2933 2932 2930 2928 2926 2924 2922 2920 2919 2917 2916 2915 2915 2914 2913 2911 2911 2909 2906 2904 2902 2901 2901 2900 2899 2898 2897 2894 2892 2891 2891 2891 2890 2888 2887 2886 2886 2886
2940 2940 2940 2941 2941 2942 2942 2942 2942 2941 2941 2940 2938 2937 2936 2936 2937 2938 2937 2937 2935 2934 2933 2931 2929 2927 2926 2925 2923 2921 2919 2917 2915 2914 2912 2910 2910 2910 2909 2908 2907 2906 2904 2901 2898 2896 2895 2895 2894 2892 2892 2891 2889 2886 2886 2885 2885 2884 2883 2882 2880 2880 2880
2935 2935 2935 2935 2936 2936 2937 2937 2937 2936 2935 2934 2933 2931 2929 2929 2930 2931 2931 2931 2930 2929 2927 2925 2923 2921 2921 2919 2917 2916 2913 2911 2910 2908 2906 2905 2905 2904 2903 2902 2902 2901 2898 2895 2893 2891 2889 2888 2888 2887 2886 2885 2883 2881 2880 2879 2878 2879 2878 2877 2875 2874 2874
2929 2929 2929 2930 2930 2931 2932 2932 2931 2930 2929 2928 2926 2925 2923 2923 2924 2924 2925 2925 2924 2923 2921 2919 2917 2916 2915 2914 2912 2911 2908 2906 2904 2902 2901 2900 2900 2899 2897 2897 2897 2896 2892 2890 2888 2886 2883 2882 2882 2881 2880 2879 2878 2876 2874 2873 2872 2873 2873 2871 2869 2869 2869
2923 2923 2924 2924 2925 2925 2926 2927 2926 2925 2924 2922 2921 2919 2917 2917 2917 2917 2918 2918 2918 2916 2915 2913 2912 2910 2909 2908 2907 2905 2903 2901 2899 2897 2896 2895 2894 2893 2892 2892 2893 2890 2887 2885 2883 2880 2879 2877 2876 2875 2874 2873 2872 2870 2869 2867 2866 2866 2866 2864 2862 2862 2863
2918 2918 2919 2919 2919 2920 2921 2921 2921 2920 2918 2916 2915 2913 2911 2911 2911 2911 2912 2911 2911 2909 2908 2907 2906 2904 2903 2901 2900 2899 2897 2895 2893 2892 2891 2890 2888 2887 2886 2887 2887 2884 2881 2880 2878 2875 2874 2872 2870 2869 2868 2867 2867 2865 2863 2861 2860 2860 2860 2857 2855 2855 2855
2912 2913 2913 2914 2914 2914 2915 2915 2915 2914 2912 2911 2908 2906 2905 2905 2905 2905 2905 2905 2904 2903 2902 2901 2900 2898 2896 2895 2894 2892 2891 2889 2888 2886 2885 2884 2882 2880 2880 2881 2880 2877 2876 2875 2872 2870 2868 2866 2865 2864 2862 2862 2861 2860 2858 2855 2853 2853 2852 2851 2850 2849 2847
2906 2907 2908 2908 2908 2908 2909 2909 2909 2908 2906 2904 2902 2900 2899 2898 2898 2899 2899 2898 2897 2897 2896 2895 2894 2892 2890 2888 2887 2886 2884 2883 2882 2881 2880 2878 2875 2874 2874 2874 2872 2870 2870 2869 2867 2865 2863 2861 2859 2858 2856 2856 2855 2854 2852 2850 2847 2846 2845 2843 2843 2842 2839
2901 2901 2902 2902 2902 2902 2903 2903 2902 2901 2900 2898 2897 2895 2893 2892 2892 2893 2892 2891 2891 2891 2890 2889 2888 2886 2884 2882 2881 2879 2878 2878 2877 2875 2873 2872 2870 2868 2867 2866 2864 2863 2863 2861 2860 2859 2857 2855 2854 2853 2851 2850 2849 2848 2846 2844 2841 2839 2838 2836 2835 2835 2832
2895 2896 2896 2896 2897 2897 2897 2897 2896 2895 2893 2892 2891 2890 2887 2886 2886 2886 2885 2884 2884 2885 2884 2883 2882 2880 2878 2876 2875 2874 2873 2872 2871 2869 2867 2866 2864 2862 2860 2858 2856 2856 2856 2855 2854 2852 2851 2850 2849 2847 2846 2845 2844 2842 2841 2838 2836 2834 2833 2831 2829 2827 2825
2890 2890 2891 2891 2891 2891 2891 2891 2890 2889 2887 2886 2886 2884 2882 2881 2880 2880 2878 2878 2878 2878 2878 2877 2875 2874 2873 2871 2870 2869 2868 2867 2865 2863 2861 2860 2858 2856 2854 2851 2849 2848 2848 2848 2847 2846 2845 2845 2843 2842 2840 2839 2837 2836 2835 2833 2831 2830 2828 2826 2824 2822 2820
2884 2884 2885 2885 2886 2886 2885 2885 2883 2882 2881 2881 2880 2878 2877 2875 2875 2874 2873 2872 2872 2872 2871 2870 2869 2868 2867 2866 2864 2864 2863 2861 2860 2858 2856 2854 2852 2850 2848 2845 2843 2842 2840 2840 2840 2840 2840 2839 2838 2836 2834 2833 2832 2830 2829 2828 2827 2825 2823 2821 2819 2817 2814
2878 2878 2879 2879 2880 2880 2880 2879 2877 2876 2876 2875 2874 2872 2871 2870 2869 2868 2867 2866 2866 2865 2865 2864 2863 2862 2861 2860 2859 2858 2857 2856 2854 2852 2850 2848 2846 2844 2842 2840 2838 2837 2835 2834 2834 2834 2834 2834 2833 2830 2828 2827 2826 2825 2824 2823 2821 2819 2817 2815 2813 2810 2807
2872 2872 2872 2873 2874 2874 2874 2872 2871 2871 2870 2869 2867 2865 2864 2864 2863 2862 2861 2860 2859 2859 2858 2857 2856 2855 2855 2854 2853 2852 2851 2850 2848 2846 2844 2842 2840 2838 2836 2834 2833 2831 2830 2829 2828 2828 2828 2827 2826 2824 2823 2822 2821 2819 2819 2818 2816 2813 2811 2809 2807 2804 2801
2866 2866 2866 2866 2867 2868 2867 2866 2866 2865 2865 2863 2860 2859 2859 2858 2858 2857 2855 2854 2853 2852 2851 2850 2849 2849 2848 2848 2847 2846 2845 2843 2841 2840 2838 2836 2834 2832 2830 2829 2827 2825 2824 2823 2823 2822 2822 2821 2820 2819 2818 2817 2815 2814 2814 2812 2810 2808 2806 2804 2801 2797 2795
2859 2860 2860 2860 2861 2860 2860 2860 2860 2860 2858 2856 2854 2853 2853 2852 2851 2850 2849 2848 2847 2846 2844 2844 2843 2843 2842 2841 2841 2839 2838 2836 2835 2833 2831 2830 2828 2826 2825 2823 2822 2820 2819 2818 2817 2816 2816 2815 2815 2814 2813 2812 2810 2809 2808 2807 2804 2801 2800 2798 2794 2791 2789
2853 2854 2854 2854 2854 2854 2854 2854 2854 2853 2852 2850 2849 2848 2847 2846 2845 2845 2844 2843 2841 2840 2838 2838 2837 2837 2836 2835 2834 2833 2832 2830 2828 2826 2825 2824 2822 2821 2819 2818 2817 2816 2815 2813 2812 2811 2810 2810 2809 2808 2807 2806 2805 2804 2803 2801 2798 2796 2794 2791 2788 2785 2783
2847 2847 2847 2847 2847 2847 2847 2848 2847 2846 2845 2844 2843 2842 2841 2841 2840 2839 2838 2837 2835 2834 2832 2832 2832 2831 2831 2830 2829 2827 2826 2824 2822 2820 2819 2818 2817 2815 2814 2813 2812 2811 2810 2808 2807 2805 2805 2804 2804 2803 2802 2800 2799 2798 2797 2794 2792 2790 2787 2785 2782 2779 2777
2841 2841 2841 2841 2841 2841 2840 2841 2840 2839 2838 2838 2837 2836 2835 2835 2834 2833 2832 2831 2829 2828 2827 2827 2827 2826 2825 2824 2823 2822 2821 2819 2817 2815 2814 2813 2812 2810 2809 2808 2807 2805 2804 2803 2801 2800 2799 2799 2798 2797 2796 2794 2793 2791 2790 2788 2786 2784 2781 2779 2776 2773 2771
2835 2835 2834 2834 2835 2835 2834 2834 2834 2833 2832 2831 2830 2830 2829 2828 2828 2827 2826 2825 2824 2822 2822 2821 2821 2820 2819 2818 2817 2816 2815 2813 2811 2810 2809 2808 2807 2806 2805 2803 2802 2800 2799 2798 2797 2796 2794 2793 2792 2791 2790 2788 2786 2785 2783 2781 2780 2777 2775 2772 2769 2766 2764
2829 2829 2828 2828 2828 2828 2828 2828 2827 2826 2825 2825 2824 2823 2823 2822 2822 2821 2820 2819 2818 2816 2816 2816 2815 2814 2813 2812 2811 2810 2809 2807 2806 2805 2804 2803 2802 2801 2800 2798 2797 2795 2794 2793 2792 2791 2789 2788 2787 2785 2783 2782 2780 2778 2777 2775 2773 2771 2769 2766 2763 2760 2757
2822 2822 2822 2822 2821 2821 2821 2821 2820 2819 2819 2818 2818 2818 2817 2816 2815 2815 2815 2813 2812 2811 2810 2810 2809 2808 2807 2806 2805 2804 2802 2801 2800 2799 2798 2797 2797 2796 2795 2794 2792 2791 2790 2789 2787 2786 2785 2783 2781 2779 2777 2776 2774 2772 2770 2768 2767 2765 2762 2759 2756 2753 2750
2816 2816 2815 2815 2815 2815 2814 2814 2813 2812 2812 2812 2812 2812 2811 2810 2810 2809 2809 2808 2806 2805 2805 2804 2803 2802 2801 2800 2799 2798 2796 2795 2794 2793 2793 2792 2792 2791 2790 2789 2787 2786 2785 2784 2782 2781 2780 2778 2776 2774 2771 2769 2767 2765 2764 2762 2760 2758 2755 2752 2749 2746 2743
2810 2809 2808 2808 2808 2808 2808 2807 2806 2805 2805 2805 2805 2805 2804 2804 2803 2804 2803 2802 2800 2799 2799 2797 2797 2796 2795 2794 2793 2791 2790 2789 2788 2788 2787 2787 2786 2786 2785 2784 2783 2781 2780 2779 2777 2776 2774 2772 2770 2768 2765 2763 2761 2759 2758 2756 2754 2751 2748 2745 2741 2738 2735
2804 2803 2803 2802 2802 2801 2801 2799 2799 2798 2798 2799 2799 2798 2797 2797 2797 2797 2796 2796 2795 2794 2793 2791 2791 2790 2789 2788 2786 2785 2784 2783 2782 2782 2782 2781 2781 2780 2780 2779 2778 2776 2775 2774 2772 2771 2769 2767 2764 2762 2760 2757 2755 2753 2751 2749 2747 2744 2741 2738 2734 2731 2727